When you browse on this site, cookies collect data to enhance your experience and personalize the content and advertising you see.
Visit our Privacy Policy to learn more. By continuing to use the site, you agree to this use of cookies and data.
  • In Lithuania
  • List of Countries
  • For 7 days
  • Water Temperature
  • Satellite Maps
  • Weather Map
  • Weather Widgets
  • user-avatar
    Login

    Hourly Weather Port-au-Princ

    Today, 25 March, Monday

    Time Temperature Precipitation Wind Pressure Humidity
    00:00 +25°C° 0.1 mm 1 mps 737 mmHg 73%
    01:00 +25°C° 0.1 mm 1 mps 737 mmHg 74%
    02:00 +25°C° 0 mm 1 mps 737 mmHg 74%
    03:00 +24°C° 0 mm 1 mps 736 mmHg 74%
    04:00 +24°C° 0 mm 1 mps 736 mmHg 74%
    05:00 +25°C° 0 mm 1 mps 736 mmHg 72%
    06:00 +25°C° 0 mm 1 mps 736 mmHg 71%
    07:00 +25°C° 0 mm 1 mps 736 mmHg 69%
    08:00 +27°C° 0 mm 1 mps 737 mmHg 62%
    09:00 +29°C° 0 mm 1 mps 737 mmHg 55%
    10:00 +30°C° 0 mm 1 mps 738 mmHg 47%
    11:00 +31°C° 0 mm 2 mps 737 mmHg 46%
    12:00 +31°C° 0 mm 2 mps 737 mmHg 45%
    13:00 +33°C° 0 mm 3 mps 736 mmHg 44%
    14:00 +31°C° 0.1 mm 3 mps 736 mmHg 46%
    15:00 +31°C° 0.1 mm 3 mps 736 mmHg 49%
    16:00 +30°C° 0.1 mm 3 mps 735 mmHg 51%
    17:00 +29°C° 0.1 mm 2 mps 735 mmHg 55%
    18:00 +28°C° 0.1 mm 2 mps 735 mmHg 60%
    19:00 +27°C° 0.1 mm 1 mps 736 mmHg 65%
    20:00 +27°C° 0 mm 1 mps 736 mmHg 66%
    21:00 +26°C° 0 mm 1 mps 736 mmHg 68%
    22:00 +26°C° 0 mm 1 mps 737 mmHg 70%
    23:00 +23°C° 0 mm 0 mps 736 mmHg 71%

    Tomorrow, 26 March, Tuesday

    Time Temperature Precipitation Wind Pressure Humidity
    00:00 +23°C° 0 mm 0 mps 736 mmHg 73%
    01:00 +23°C° 0 mm 0 mps 736 mmHg 74%
    02:00 +22°C° 0 mm 0 mps 735 mmHg 76%
    03:00 +22°C° 0 mm 0 mps 735 mmHg 77%
    04:00 +22°C° 0 mm 0 mps 735 mmHg 78%
    05:00 +22°C° 0 mm 0 mps 735 mmHg 76%
    06:00 +23°C° 0 mm 0 mps 735 mmHg 74%
    07:00 +25°C° 0 mm 1 mps 736 mmHg 72%
    08:00 +27°C° 0 mm 1 mps 736 mmHg 64%
    09:00 +29°C° 0 mm 1 mps 737 mmHg 57%
    10:00 +31°C° 0 mm 1 mps 737 mmHg 50%
    11:00 +31°C° 0.1 mm 2 mps 736 mmHg 49%
    12:00 +32°C° 0.1 mm 2 mps 736 mmHg 49%
    13:00 +33°C° 0.1 mm 3 mps 735 mmHg 48%
    14:00 +31°C° 0.5 mm 3 mps 735 mmHg 51%
    15:00 +31°C° 0.5 mm 3 mps 734 mmHg 55%
    16:00 +30°C° 0.5 mm 3 mps 734 mmHg 58%
    17:00 +29°C° 0.8 mm 3 mps 734 mmHg 63%
    18:00 +28°C° 0.8 mm 2 mps 735 mmHg 69%
    19:00 +27°C° 0.8 mm 2 mps 735 mmHg 74%
    20:00 +26°C° 0.4 mm 1 mps 735 mmHg 75%
    21:00 +26°C° 0.4 mm 1 mps 736 mmHg 76%
    22:00 +26°C° 0.4 mm 1 mps 736 mmHg 77%
    23:00 +25°C° 0.1 mm 1 mps 736 mmHg 78%

    Day after tomorrow, 27 March, Wednesday

    Time Temperature Precipitation Wind Pressure Humidity
    00:00 +23°C° 0.1 mm 0 mps 736 mmHg 79%
    01:00 +23°C° 0.1 mm 0 mps 735 mmHg 80%
    02:00 +23°C° 0 mm 0 mps 735 mmHg 81%
    03:00 +22°C° 0 mm 0 mps 735 mmHg 81%
    04:00 +22°C° 0 mm 0 mps 734 mmHg 81%
    05:00 +25°C° 0 mm 1 mps 735 mmHg 79%
    06:00 +25°C° 0 mm 1 mps 735 mmHg 77%
    07:00 +25°C° 0 mm 1 mps 736 mmHg 74%
    08:00 +27°C° 0.1 mm 1 mps 736 mmHg 68%
    09:00 +29°C° 0.1 mm 1 mps 736 mmHg 61%
    10:00 +29°C° 0.1 mm 0 mps 737 mmHg 54%
    11:00 +31°C° 0.9 mm 1 mps 736 mmHg 53%
    12:00 +31°C° 0.9 mm 2 mps 736 mmHg 53%
    13:00 +31°C° 0.9 mm 3 mps 735 mmHg 53%
    14:00 +31°C° 1.2 mm 3 mps 735 mmHg 56%
    15:00 +30°C° 1.2 mm 3 mps 735 mmHg 58%
    16:00 +30°C° 1.2 mm 3 mps 734 mmHg 61%
    17:00 +29°C° 1.1 mm 2 mps 735 mmHg 65%
    18:00 +28°C° 1.1 mm 2 mps 735 mmHg 69%
    19:00 +27°C° 1.1 mm 1 mps 736 mmHg 73%
    20:00 +26°C° 0.4 mm 1 mps 736 mmHg 73%
    21:00 +26°C° 0.4 mm 1 mps 736 mmHg 74%
    22:00 +24°C° 0.4 mm 0 mps 736 mmHg 75%
    23:00 +24°C° 0 mm 0 mps 736 mmHg 76%

    28 March, Thursday

    Time Temperature Precipitation Wind Pressure Humidity
    00:00 +23°C° 0 mm 0 mps 735 mmHg 76%
    01:00 +23°C° 0 mm 0 mps 735 mmHg 77%
    02:00 +23°C° 0 mm 0 mps 735 mmHg 78%
    03:00 +23°C° 0 mm 0 mps 735 mmHg 79%
    04:00 +23°C° 0 mm 0 mps 735 mmHg 80%
    05:00 +23°C° 0 mm 0 mps 735 mmHg 78%
    06:00 +23°C° 0 mm 0 mps 736 mmHg 76%
    07:00 +24°C° 0 mm 0 mps 736 mmHg 75%
    08:00 +27°C° 0 mm 1 mps 737 mmHg 69%
    09:00 +29°C° 0 mm 1 mps 737 mmHg 62%
    10:00 +30°C° 0 mm 1 mps 737 mmHg 56%
    11:00 +30°C° 0.2 mm 2 mps 737 mmHg 55%
    12:00 +31°C° 0.2 mm 3 mps 736 mmHg 54%
    13:00 +32°C° 0.2 mm 4 mps 736 mmHg 52%
    14:00 +30°C° 0.3 mm 4 mps 735 mmHg 55%
    15:00 +30°C° 0.3 mm 4 mps 735 mmHg 58%
    16:00 +29°C° 0.3 mm 4 mps 735 mmHg 60%
    17:00 +28°C° 0.3 mm 3 mps 735 mmHg 65%
    18:00 +27°C° 0.3 mm 3 mps 736 mmHg 71%
    19:00 +26°C° 0.3 mm 2 mps 736 mmHg 76%
    20:00 +26°C° 0.1 mm 2 mps 736 mmHg 78%
    21:00 +25°C° 0.1 mm 1 mps 736 mmHg 80%
    22:00 +25°C° 0.1 mm 1 mps 736 mmHg 81%
    23:00 +25°C° 0 mm 1 mps 736 mmHg 82%

    29 March, Friday

    Time Temperature Precipitation Wind Pressure Humidity
    00:00 +24°C° 0 mm 1 mps 736 mmHg 83%
    01:00 +24°C° 0 mm 1 mps 735 mmHg 84%
    02:00 +24°C° 0 mm 1 mps 735 mmHg 84%
    03:00 +24°C° 0 mm 1 mps 735 mmHg 84%
    04:00 +24°C° 0 mm 1 mps 735 mmHg 84%
    05:00 +24°C° 0 mm 1 mps 736 mmHg 82%
    06:00 +24°C° 0 mm 1 mps 736 mmHg 80%
    07:00 +25°C° 0 mm 1 mps 737 mmHg 78%
    08:00 +27°C° 0 mm 1 mps 737 mmHg 71%
    09:00 +28°C° 0 mm 1 mps 737 mmHg 63%
    10:00 +30°C° 0 mm 1 mps 737 mmHg 56%
    11:00 +30°C° 0.2 mm 1 mps 737 mmHg 55%
    12:00 +31°C° 0.2 mm 2 mps 736 mmHg 54%
    13:00 +31°C° 0.2 mm 3 mps 735 mmHg 52%
    14:00 +31°C° 0.9 mm 3 mps 735 mmHg 55%
    15:00 +30°C° 0.9 mm 3 mps 735 mmHg 58%
    16:00 +29°C° 0.9 mm 3 mps 735 mmHg 60%
    17:00 +28°C° 0.6 mm 3 mps 735 mmHg 64%
    18:00 +27°C° 0.6 mm 2 mps 736 mmHg 69%
    19:00 +26°C° 0.6 mm 1 mps 736 mmHg 73%
    20:00 +26°C° 0.1 mm 1 mps 736 mmHg 74%
    21:00 +25°C° 0.1 mm 1 mps 736 mmHg 76%
    22:00 +25°C° 0.1 mm 1 mps 737 mmHg 78%
    23:00 +25°C° 0.1 mm 1 mps 736 mmHg 79%

    30 March, Saturday

    Time Temperature Precipitation Wind Pressure Humidity
    00:00 +25°C° 0.1 mm 1 mps 736 mmHg 80%
    01:00 +24°C° 0.1 mm 1 mps 735 mmHg 82%
    02:00 +24°C° 0 mm 1 mps 735 mmHg 82%
    03:00 +24°C° 0 mm 1 mps 735 mmHg 82%
    04:00 +24°C° 0 mm 1 mps 735 mmHg 82%
    05:00 +24°C° 0 mm 1 mps 736 mmHg 80%
    06:00 +25°C° 0 mm 1 mps 736 mmHg 77%
    07:00 +25°C° 0 mm 1 mps 736 mmHg 75%
    08:00 +27°C° 0 mm 1 mps 737 mmHg 68%
    09:00 +29°C° 0 mm 1 mps 737 mmHg 60%
    10:00 +28°C° 0 mm 0 mps 737 mmHg 53%
    11:00 +31°C° 0.1 mm 1 mps 737 mmHg 52%
    12:00 +31°C° 0.1 mm 2 mps 736 mmHg 51%
    13:00 +31°C° 0.1 mm 2 mps 736 mmHg 50%
    14:00 +31°C° 0.4 mm 2 mps 735 mmHg 53%
    15:00 +30°C° 0.4 mm 2 mps 735 mmHg 55%
    16:00 +30°C° 0.4 mm 2 mps 735 mmHg 58%
    17:00 +29°C° 0.5 mm 2 mps 735 mmHg 62%
    18:00 +28°C° 0.5 mm 1 mps 735 mmHg 67%
    19:00 +27°C° 0.5 mm 1 mps 736 mmHg 71%
    20:00 +26°C° 0.3 mm 1 mps 736 mmHg 72%
    21:00 +26°C° 0.3 mm 1 mps 736 mmHg 74%
    22:00 +26°C° 0.3 mm 1 mps 737 mmHg 75%
    23:00 +25°C° 0.1 mm 1 mps 736 mmHg 76%
    Show more